Find Starlink 6196

NORAD ID: 56487 Int'l Des: 2023-064 Owner: SPXS Country: US Constellation: starlink operational
LEOCIRCULAR

現在のビュー

3D地球を読み込み中...

About Starlink 6196

Starlink 6196 (NORAD 56487) is a starlink constellation satellite (v1.5) launched May 10, 2023 by SPXS of US. It operates in LEO, CIRCULAR orbit with a mass of 305.00 kg.

次回通過

Passes for default location (London). Set your location on the main map for personalized predictions.

高度履歴

Loading altitude history...

軌道要素

1 56487U 23064AR 26256.66818287 .00000182 00000-0 23069-4 0 9997
2 56487 70.0005 350.3502 0003144 267.4000 92.6799 14.98332862184396
Epoch: Sep 13, 2026 • Age: 10 hours

現在のステータス

高度 576.0 km
遠地点 / 近地点 N/A
速度 7.57 km/s
衛星直下点 -11.13°S, 142.71°E
打ち上げ日 May 10, 2023
運用期間 3.3 years
タイプ internet

技術仕様

分類 Payload
質量 305.00 kg
乾燥質量 290.00 kg
総質量 305.00 kg
長さ 0.20 m
直径 2.80 m
スパン 9.00 m
形状 Box + pan
製造者 SPXS
バスタイプ Starlink
フェーズステータス In Orbit
所有者/国 SPXS/US

Most Searched